Location: Ciserano
(45.5833°N, 9.6000°E)
Time: 01:10:23
(UTC+00:00)

Cosmos 2327 Rocket - Visible Passes

Search period start: 14 April 2021 00:00
Search period end: 24 April 2021 00:00
Orbit: 943 x 1009 km, 83.0° (Epoch: 12 April)

Date Brightness Start Highest point End Pass type
(mag) Time Alt. Az. Time Alt. Az. Time Alt. Az.
14 Apr 4.7 00:36:13 10° N 00:41:34 68° NNW 00:41:34 68° NNW visible
14 Apr 6.3 02:23:50 10° NW 02:26:14 14° WNW 02:26:14 14° WNW visible
14 Apr 5.9 23:16:59 10° NNE 23:22:15 28° ENE 23:22:15 28° ENE visible
15 Apr 5.0 01:01:58 10° NNW 01:06:55 46° WNW 01:06:55 46° WNW visible
15 Apr 5.2 23:42:07 10° N 23:47:37 47° ENE 23:47:37 47° ENE visible
16 Apr 5.7 01:28:01 10° NNW 01:32:17 28° WNW 01:32:17 28° WNW visible
16 Apr 6.6 22:24:03 10° NNE 22:27:26 15° ENE 22:28:19 14° ENE visible
17 Apr 4.7 00:07:33 10° N 00:13:00 68° N 00:13:00 68° N visible
17 Apr 6.2 01:54:40 10° NW 01:57:40 16° WNW 01:57:40 16° WNW visible
17 Apr 6.0 22:48:29 10° NNE 22:53:33 25° ENE 22:53:42 25° ENE visible
18 Apr 4.9 00:33:13 10° NNW 00:38:23 53° WNW 00:38:23 53° WNW visible
18 Apr 5.3 23:13:32 10° N 23:19:06 42° ENE 23:19:06 42° ENE visible
19 Apr 5.5 00:59:11 10° NNW 01:03:47 32° WNW 01:03:47 32° WNW visible
19 Apr 6.6 21:55:55 10° NE 21:58:37 13° ENE 21:59:51 12° ENE visible
19 Apr 4.7 23:38:54 10° N 23:44:31 67° NE 23:44:31 67° NE visible
20 Apr 6.1 01:25:38 10° NW 01:29:11 19° WNW 01:29:11 19° WNW visible
20 Apr 6.1 22:20:01 10° NNE 22:24:48 22° ENE 22:25:16 22° ENE visible
21 Apr 4.7 00:04:30 10° NNW 00:09:56 61° NW 00:09:56 61° NW visible
21 Apr 6.6 01:54:14 10° WNW 01:54:36 10° WNW 01:54:36 10° WNW visible
21 Apr 5.4 22:44:57 10° N 22:50:41 37° ENE 22:50:41 37° ENE visible
22 Apr 5.4 00:30:23 10° NNW 00:35:22 37° WNW 00:35:22 37° WNW visible
22 Apr 6.7 21:28:03 10° NE 21:29:48 11° ENE 21:31:27 10° ENE visible
22 Apr 4.7 23:10:16 10° N 23:16:08 62° ENE 23:16:08 62° ENE visible
23 Apr 6.0 00:56:40 10° NW 01:00:48 22° WNW 01:00:48 22° WNW visible
23 Apr 6.2 21:51:35 10° NNE 21:56:02 20° ENE 21:56:54 19° ENE visible
23 Apr 4.6 23:35:49 10° N 23:41:35 71° NW 23:41:35 71° NW visible
